Dewpoint
49 50 48 50 48 48 46 47 48 49 49 50 48 49 50 49 48 50 51 54 54 53 53 53 53 54 50 43 43 50 50 45 39 35 31 27 26 24 22 24 24 24 27 28 27 25 25
47 48 50 50 49 49 48 47 48 49 50 49 50 49 50 50 51 51 51 54 53 53 53 53 52 50 43 36 48 50 47 39 36 32 31 29 28 28 26 26 24 28 27 26 25 24 26
45 46 47 50 49 49 50 46 48 49 49 50 49 49 50 50 50 51 50 52 51 52 52 52 51 44 41 41 50 51 43 37 35 32 30 32 31 28 28 25 27 24 21 24 25 25 25
47 46 47 48 48 48 49 47 48 49 50 49 48 48 50 50 49 49 48 48 48 50 50 51 50 45 40 48 49 44 42 34 34 33 32 32 31 28 27 26 24 19 20 11 23 23 27
50 47 46 48 48 48 48 48 47 49 49 50 49 48 49 50 50 49 49 47 46 47 45 46 45 42 39 46 40 44 41 36 34 33 33 32 30 28 28 21 17 21 10 14 20 25 27
49 48 48 46 49 48 48 48 48 49 49 50 50 49 47 49 48 48 48 47 44 43 42 42 41 39 40 37 42 42 39 36 33 29 28 29 27 25 24 19 10 13 20 19 16 23 25
51 50 49 47 49 47 48 48 48 49 50 50 50 50 49 50 47 47 42 40 37 36 40 37 38 38 39 40 42 37 40 34 31 30 26 27 20 19 20 20 18 20 20 17 22 27 26
52 49 47 48 48 48 48 48 49 49 50 50 50 50 49 50 47 44 42 41 42 41 33 38 38 39 40 41 33 35 39 29 29 26 27 24 23 25 25 23 20 18 18 21 26 28 28
52 50 48 47 48 48 48 48 48 49 50 50 50 49 48 49 45 42 41 42 45 44 31 32 37 36 38 37 33 33 37 32 28 27 27 24 25 26 24 24 23 26 21 24 25 29 27
51 51 49 48 48 48 47 48 48 49 50 49 48 47 48 47 38 42 38 43 44 43 25 26 31 33 35 36 28 36 37 33 29 25 25 25 26 25 24 24 25 22 30 29 28 25 10
51 51 50 48 48 48 48 48 49 49 50 48 47 48 47 43 40 37 41 44 43 32 16 25 30 36 35 29 30 33 36 34 30 30 22 22 28 29 28 29 30 28 30 30 29 27 25
51 51 51 49 48 49 48 49 50 50 50 49 47 48 46 40 42 42 44 44 35 17 17 24 30 31 30 32 32 33 33 35 34 30 29 28 29 30 30 30 31 31 29 28 29 26 14
52 51 51 49 48 49 49 49 49 50 50 49 48 47 44 42 35 43 43 34 18 17 24 25 28 31 30 30 30 31 30 30 27 21 25 28 31 32 31 29 31 29 24 14 9 17 5
51 51 51 50 48 49 49 49 49 49 50 49 48 45 43 42 43 43 34 24 16 26 26 29 30 31 28 30 30 31 28 27 30 27 25 22 20 31 31 30 28 31 26 19 7 14 20
52 51 51 50 49 48 48 48 49 49 50 49 45 41 41 40 43 42 30 22 23 26 29 30 31 27 26 28 29 31 30 29 31 31 23 24 26 33 31 34 32 32 26 30 25 25 22
52 51 51 50 49 48 48 48 48 49 50 47 37 40 39 43 44 36 30 28 30 32 33 32 26 26 25 26 26 29 30 32 31 33 33 30 26 31 33 34 35 32 34 27 27 19 17
53 52 51 51 50 48 47 47 48 49 48 46 40 28 37 44 40 32 28 30 32 34 34 32 29 27 27 27 27 27 29 32 33 33 33 31 27 28 34 31 30 32 29 31 29 26 21
53 53 52 51 50 49 47 47 47 48 48 42 36 20 36 40 26 31 29 31 33 32 34 33 33 30 28 28 28 28 28 30 35 33 31 32 28 23 26 31 32 32 30 30 23 22 26
53 53 52 52 51 50 48 47 47 47 49 38 32 33 38 34 20 28 32 32 33 33 33 32 31 31 30 28 26 27 28 33 36 33 32 33 28 18 22 27 33 32 32 30 28 28 25
52 53 53 52 51 50 48 47 48 47 49 40 31 16 30 34 33 30 30 30 28 33 33 32 31 31 29 28 27 24 23 32 35 35 36 34 29 23 -2 5 27 30 31 31 29 26 24
51 53 53 53 51 49 48 47 47 47 46 36 32 27 33 26 29 31 32 30 30 29 33 33 30 30 27 23 24 24 24 27 34 34 34 30 25 26 26 26 27 26 26 30 30 29 24
50 52 52 53 52 50 48 46 46 46 42 35 26 29 34 31 31 29 30 29 28 29 31 29 29 29 29 26 24 21 26 26 23 32 31 33 24 26 24 24 25 24 25 27 28 30 29
50 51 52 53 53 50 48 46 46 45 38 32 37 36 31 33 30 27 25 28 29 30 29 31 31 30 28 28 29 29 30 29 27 29 29 27 28 24 18 22 23 11 14 21 23 26 26
51 51 52 52 53 51 48 46 46 46 40 36 38 35 24 18 30 26 28 29 28 31 28 32 33 30 29 35 33 31 32 31 31 30 30 28 26 25 23 22 -1 6 19 19 20 20 26
52 52 52 52 52 53 50 46 46 45 42 36 38 34 26 24 22 23 23 25 28 28 29 30 32 33 35 31 27 18 14 24 29 31 30 30 27 24 21 21 17 10 17 20 18 12 19
52 52 52 53 53 53 52 48 45 45 43 38 37 38 32 26 26 25 24 26 23 24 26 29 34 35 33 29 25 14 4 7 13 24 31 31 29 25 24 20 4 5 17 25 19 7 15
53 53 53 53 53 53 53 51 46 44 43 39 37 38 35 29 29 28 25 21 29 28 26 29 31 32 33 27 23 19 13 19 11 15 26 28 28 26 24 22 22 24 24 23 9 2 14
54 54 53 53 53 53 53 52 50 46 44 38 37 38 34 30 31 32 29 28 31 31 23 25 27 30 31 25 24 22 22 20 19 18 23 24 24 24 24 21 15 25 23 16 13 20 21
50 52 53 53 53 53 53 52 52 49 45 41 37 39 38 33 34 34 34 32 29 30 29 30 28 30 31 26 26 27 25 25 22 16 24 17 21 21 24 20 23 25 23 23 22 22 23
Wind_Speed
20 20 20 20 21 21 21 21 21 21 22 25 29 30 27 21 17 16 17 19 29 25 27 30 25 26 12 14 8 12 15 5 2 6 6 8 10 6 8 8 5 10 5 6 6 8 6
19 19 20 18 19 20 20 21 22 22 21 23 25 26 25 26 24 20 25 21 30 27 30 25 22 17 20 30 12 17 14 6 9 12 8 7 5 9 9 6 6 5 10 7 5 5 4
20 19 19 20 19 19 19 21 22 22 22 22 23 25 24 25 25 22 27 27 23 25 29 25 23 19 46 12 14 19 9 10 9 11 10 4 5 5 6 11 5 7 8 4 5 2 1
19 19 19 19 19 19 19 20 21 22 22 22 24 22 22 22 21 18 19 17 19 17 21 24 20 21 16 7 18 18 16 20 15 13 13 5 12 12 5 7 6 5 5 4 2 2 2
20 19 19 19 19 19 19 20 21 21 21 22 21 21 20 19 17 19 18 11 8 11 13 10 13 10 7 19 13 12 8 8 7 11 12 9 8 6 5 7 5 7 5 3 2 1 2
20 20 20 19 19 19 19 19 20 20 19 19 19 18 19 21 19 17 9 9 23 12 3 5 8 11 7 8 7 10 5 9 10 7 8 10 8 7 6 5 8 6 5 2 2 2 2
21 20 20 19 19 18 18 18 17 19 19 18 15 17 19 18 20 18 6 5 9 13 25 19 8 11 3 7 4 12 7 5 6 10 6 7 13 12 6 4 3 7 7 4 1 2 4
21 22 21 20 19 19 18 17 17 17 17 17 15 14 16 18 13 15 10 9 4 0 21 16 15 8 5 3 13 19 8 6 8 11 3 8 10 2 2 5 7 6 6 1 1 1 4
22 22 22 21 20 20 19 18 17 17 17 14 14 14 12 15 4 9 9 6 2 5 7 10 7 8 4 7 8 13 9 4 13 14 10 9 3 2 3 6 10 8 4 2 2 8 1
21 21 22 22 21 20 19 18 17 17 17 15 12 13 13 9 4 3 4 6 7 3 8 17 13 7 5 5 7 6 6 3 6 10 9 9 4 5 7 7 2 3 2 2 3 7 5
19 21 22 22 21 21 21 19 18 16 16 14 13 12 9 9 7 3 4 7 7 4 8 12 9 5 7 6 3 10 6 10 8 4 3 2 4 7 7 3 2 3 2 2 2 2 4
19 20 21 23 22 21 21 21 21 18 14 13 11 12 10 3 3 5 3 1 4 4 8 4 7 8 6 8 4 1 4 8 2 11 13 5 1 3 2 2 3 2 2 4 3 2 3
18 19 20 22 23 22 21 21 21 20 17 12 9 9 4 1 4 1 3 6 3 10 2 1 2 4 1 5 5 7 7 9 4 5 4 3 2 1 1 3 2 4 4 3 3 2 5
18 18 20 22 22 23 23 23 23 21 19 16 12 3 1 1 3 2 2 4 14 2 3 1 2 5 6 6 5 3 4 4 6 5 5 3 2 2 2 1 2 3 3 3 3 3 6
17 18 19 20 22 22 23 24 23 22 18 17 9 3 2 3 1 2 5 13 6 6 3 2 3 4 6 4 2 3 3 2 2 3 4 4 2 1 3 1 1 2 2 2 0 2 5
14 17 18 19 22 23 23 24 25 23 21 9 2 3 5 5 1 4 12 6 2 1 3 3 3 1 4 5 3 3 0 1 2 1 2 3 4 2 2 1 3 2 6 2 1 2 6
13 16 17 18 19 22 24 25 26 25 21 4 3 2 4 3 2 13 9 4 2 1 2 1 0 2 3 1 2 1 0 1 4 3 1 3 2 3 3 8 10 5 4 3 2 4 4
12 13 16 18 19 20 23 25 25 24 20 6 3 3 6 4 7 5 4 2 0 1 1 1 2 1 1 1 1 3 3 3 8 6 3 1 3 5 7 1 6 4 8 10 5 6 6
11 11 14 16 17 19 21 24 26 24 13 2 3 2 3 2 5 5 2 2 2 1 2 1 1 2 2 1 1 1 2 1 9 7 4 4 0 1 3 2 1 7 8 8 3 2 11
11 10 11 14 16 18 20 23 25 25 9 3 3 2 6 8 2 8 4 1 1 2 3 2 2 1 1 1 2 2 2 2 6 4 3 3 3 8 7 2 3 6 10 16 13 8 6
10 9 9 11 14 17 20 23 25 25 8 3 6 3 2 4 5 4 4 6 4 3 2 1 2 4 2 2 2 4 3 1 2 4 4 2 5 6 15 21 18 21 17 17 27 26 16
13 9 8 10 11 13 16 20 25 28 6 7 3 2 2 2 2 1 1 6 6 2 4 3 6 2 4 5 5 3 3 4 5 4 7 3 4 3 12 14 9 17 24 26 30 29 30
14 12 10 8 10 12 13 17 21 26 10 5 2 2 1 1 1 1 2 3 4 5 4 4 5 2 7 13 10 11 9 7 3 5 11 5 4 5 8 8 16 20 16 26 14 13 28
14 15 13 9 8 9 10 13 16 19 11 4 1 3 2 1 2 3 2 2 5 5 4 3 6 5 3 1 7 6 7 12 12 14 8 6 4 2 9 12 5 3 5 3 20 18 25
13 13 15 11 8 8 8 9 11 13 12 5 1 2 2 3 4 5 5 5 5 5 5 8 7 4 2 3 4 6 3 3 2 5 15 9 7 4 5 5 17 10 4 4 7 12 20
13 13 14 12 8 8 7 5 6 7 8 4 3 1 2 0 3 1 2 2 3 3 3 4 1 1 3 1 0 3 5 3 3 4 6 9 9 11 3 4 7 3 1 2 2 13 5
14 14 15 15 12 9 8 7 4 2 3 3 1 1 3 2 4 5 4 2 3 1 3 4 2 1 2 3 3 5 4 2 4 5 7 8 7 20 15 7 13 16 14 1 3 5 2
14 14 15 16 15 13 11 9 8 6 2 1 0 1 1 3 8 8 5 6 3 3 3 1 2 1 3 5 5 5 5 4 3 3 5 12 13 9 9 9 12 14 7 10 7 3 5
7 9 15 17 19 17 14 12 11 9 6 2 1 1 2 3 7 4 8 7 7 7 4 1 3 2 6 4 3 2 5 4 5 6 5 8 11 6 17 13 8 11 8 12 4 7 7
Wind_Direction
19 15 15 13 12 12 15 17 15 18 20 19 18 18 20 26 25 19 28 49 81 88 83 71 75 97 101 81 36 330 336 334 58 99 96 113 106 115 116 108 73 88 114 68 84 59 63
18 15 11 14 13 11 16 14 16 14 18 18 17 15 17 18 23 52 41 59 88 83 85 83 56 89 96 72 315 330 332 61 71 99 90 59 119 113 95 86 79 99 105 102 56 74 43
15 16 11 6 10 12 14 15 16 16 14 12 17 15 18 9 23 43 46 64 74 80 72 70 63 68 64 73 313 315 21 59 49 98 86 44 120 84 125 102 122 116 95 79 35 43 84
20 14 13 9 3 13 16 15 17 16 13 12 13 15 17 25 36 41 50 41 45 69 91 87 74 55 78 277 307 19 10 47 47 68 87 76 82 85 52 112 49 85 75 150 336 347 16
22 15 11 7 5 7 14 15 15 15 15 10 11 11 17 16 8 353 8 53 35 57 58 110 59 71 58 312 25 346 32 44 32 58 57 66 66 69 53 89 80 29 154 175 319 260 11
17 17 11 7 3 5 8 14 11 12 13 9 7 5 10 18 17 13 351 2 37 42 37 68 70 74 11 41 337 342 19 40 50 49 49 41 58 78 43 46 185 169 121 108 224 337 259
8 13 12 7 2 5 8 8 10 6 7 2 6 3 355 5 20 26 17 9 29 33 45 74 69 90 75 316 333 15 4 28 46 50 86 30 90 95 74 54 98 120 128 147 65 44 314
7 11 10 8 8 4 7 6 5 2 7 1 357 3 358 359 9 21 49 71 42 344 67 49 65 72 64 2 49 16 16 73 70 91 70 71 86 48 5 54 85 91 112 60 314 221 309
6 7 8 6 3 5 5 9 6 3 0 2 358 354 1 349 4 11 44 51 14 350 77 46 49 41 5 22 41 6 28 66 77 70 78 101 94 357 109 78 89 53 89 38 322 319 310
3 5 6 4 5 5 6 8 7 3 359 357 2 358 351 359 31 343 37 347 357 342 72 6 13 34 12 351 43 3 22 59 58 94 76 68 19 87 95 79 75 118 19 35 351 359 285
4 5 6 2 2 3 2 1 4 3 360 358 356 0 7 45 127 81 328 345 9 15 64 332 344 321 348 80 138 15 6 44 82 110 123 125 93 88 80 54 54 120 6 355 14 23 338
2 3 5 1 359 2 2 357 355 358 359 356 351 352 348 28 79 129 133 68 58 41 67 3 325 357 20 31 49 67 51 59 90 64 64 82 44 58 96 57 72 120 75 55 55 43 289
2 3 2 3 358 358 358 358 355 350 348 347 345 344 21 4 339 268 133 136 38 64 276 30 324 354 18 43 60 63 56 55 76 121 67 27 30 21 145 109 52 75 55 306 303 339 242
4 4 359 0 360 356 356 356 354 350 343 334 324 341 346 280 316 317 94 76 70 292 295 4 341 347 31 14 46 51 74 63 37 64 109 111 107 181 187 186 113 67 109 109 277 305 302
7 2 359 358 360 357 356 354 353 348 343 329 325 2 36 353 185 30 61 54 127 179 147 96 345 39 13 31 82 76 61 106 47 48 115 128 120 129 185 324 99 157 76 156 220 230 281
9 1 359 358 356 356 356 354 352 350 348 357 15 19 4 336 112 68 69 83 22 263 126 120 118 126 29 354 28 46 53 203 151 139 136 153 127 238 196 110 42 161 133 137 60 298 279
7 358 357 358 358 355 353 355 354 353 352 63 21 55 333 359 46 52 70 71 100 356 5 130 285 121 138 121 30 27 132 238 194 176 130 151 159 194 173 205 184 156 185 174 168 210 231
0 359 353 355 355 356 354 353 356 356 352 28 58 44 335 351 41 36 59 77 9 162 43 298 309 359 193 273 164 173 195 221 175 158 141 231 141 208 219 248 200 196 189 168 183 208 225
349 356 352 350 351 352 354 352 354 358 3 40 62 328 321 48 82 65 35 29 0 15 276 327 346 21 14 321 322 301 301 347 162 167 165 170 22 284 342 353 75 216 207 193 137 128 223
337 348 353 349 349 352 354 354 353 358 13 73 71 31 0 50 74 120 130 129 1 349 314 319 306 3 1 301 218 296 268 228 193 199 157 156 214 220 235 210 157 214 214 202 192 206 227
326 339 347 348 351 354 353 353 355 357 11 80 36 64 108 10 27 99 140 163 177 195 207 228 299 250 239 277 275 243 246 273 182 196 152 182 263 247 264 270 261 251 242 213 214 220 228
317 321 332 345 347 354 354 356 357 357 7 74 65 62 61 98 333 307 283 202 183 197 190 217 208 190 220 246 231 261 216 218 236 172 176 183 265 306 286 281 277 270 253 236 234 235 249
314 322 326 332 342 348 357 1 4 3 19 80 56 72 101 335 108 122 235 205 214 175 207 205 207 231 252 254 258 264 255 261 266 201 196 191 229 347 276 321 312 285 266 227 215 216 223
305 315 314 315 332 336 350 3 10 15 37 92 109 113 79 282 206 216 237 240 253 242 256 207 178 189 224 287 297 253 246 246 238 230 201 174 175 229 287 331 275 237 286 229 212 241 222
288 296 302 312 318 326 333 353 10 20 27 74 100 87 103 296 249 275 242 243 287 286 256 255 238 216 98 4 295 302 249 215 188 192 221 195 171 268 281 287 291 312 19 141 190 289 231
271 279 289 294 288 296 301 317 350 16 30 82 69 98 89 157 246 270 278 228 252 251 295 241 268 118 81 106 198 271 273 284 211 136 59 167 188 191 167 265 273 268 21 160 143 297 239
256 259 270 282 281 274 276 274 276 317 39 94 104 126 94 281 254 169 223 265 155 178 261 295 291 151 94 157 235 239 266 269 266 206 179 146 185 212 225 254 270 254 236 300 284 268 234
262 256 261 264 268 265 258 256 251 247 219 96 137 192 128 244 272 206 208 191 172 190 232 271 313 224 131 197 201 227 221 233 268 220 197 189 176 197 195 221 268 189 112 190 227 217 241
345 298 261 256 259 254 245 242 240 230 218 169 286 180 114 230 272 244 240 218 184 173 166 234 284 226 208 176 230 260 248 235 219 258 175 234 208 200 199 232 264 198 230 234 260 258 258